Temperature
19 17 17 18 18 18 18 18 18 18 18 17 16 16 16 16 16 16 16 16 16 17 17 17 17 17 17 17 17 16 16 16 16 16 16 16 15 15 15 15 15 15 15 15
17 18 18 18 18 18 18 18 17 18 18 17 16 16 16 16 15 16 16 16 16 17 17 17 17 17 17 17 17 16 16 16 16 16 15 15 15 15 15 15 15 15 14 14
19 19 19 19 19 18 18 18 18 18 17 17 17 16 16 16 16 16 16 16 16 16 17 17 17 17 17 16 16 16 16 16 16 15 15 15 15 15 15 15 15 14 14 14
18 19 19 19 19 19 18 18 18 18 17 16 17 15 16 15 15 15 15 15 16 16 16 16 17 17 17 16 16 16 16 16 16 15 15 15 15 15 15 15 14 14 14 14
18 19 19 19 19 19 18 18 18 17 16 15 15 15 15 15 15 15 14 15 15 16 16 16 16 17 16 16 16 16 16 16 16 15 15 15 15 15 14 14 14 14 14 14
18 19 19 19 19 19 18 17 16 14 14 15 15 15 15 14 15 15 14 15 15 15 16 16 16 16 16 16 16 16 16 15 15 15 15 15 15 15 14 14 14 14 14 14
18 18 19 19 19 18 17 16 15 15 14 14 15 15 14 15 15 14 14 15 15 15 16 16 16 16 16 16 16 16 15 15 15 15 15 15 15 14 14 14 14 14 14 14
17 17 18 18 18 17 17 16 15 15 15 14 15 14 14 15 15 15 15 15 15 15 15 15 16 16 16 16 15 15 15 15 15 15 15 15 14 14 14 14 14 14 14 14
16 16 18 18 18 17 16 15 15 14 14 14 14 14 15 15 14 14 14 15 15 15 15 15 15 15 15 15 15 15 15 15 15 15 15 14 14 14 14 14 14 14 14 14
16 16 17 17 17 17 16 14 13 14 14 14 15 14 14 15 14 14 14 14 15 15 15 15 15 15 15 15 15 15 15 15 15 15 15 14 14 14 14 14 14 14 14 14
16 16 16 16 16 16 15 15 13 12 13 14 14 14 15 14 14 14 14 15 15 15 15 15 15 15 15 15 15 15 15 15 15 15 14 14 14 14 14 14 14 14 14 13
14 13 14 15 16 16 16 15 13 14 13 12 13 13 15 14 14 14 14 14 15 15 15 15 15 15 15 15 15 15 15 15 14 14 14 14 14 14 14 14 14 14 13 13
14 13 14 15 15 15 16 15 14 13 12 11 12 14 14 13 13 14 14 14 15 15 15 15 15 15 15 15 15 15 14 14 14 14 14 14 14 14 13 13 13 13 13 13
14 13 14 15 15 15 15 15 14 13 12 12 12 14 14 13 13 13 13 14 15 15 15 15 15 15 15 15 14 14 14 14 14 14 14 14 13 13 13 13 13 13 13 13
13 13 14 14 15 15 15 15 14 14 13 13 14 13 13 13 13 13 13 14 14 14 14 14 14 14 14 14 14 14 14 14 14 13 13 13 13 13 13 12 12 12 12 12
12 13 14 14 14 14 14 14 14 14 14 13 13 13 13 13 13 13 13 13 13 14 14 14 14 14 14 14 14 14 13 13 13 13 13 13 13 12 12 12 12 12 12 12
11 12 13 13 13 14 14 14 14 14 13 14 13 13 12 12 12 13 13 14 13 14 14 14 14 14 14 13 13 13 13 13 13 13 13 12 12 12 12 12 12 11 11 11
11 11 10 11 13 14 14 14 14 14 13 13 13 13 12 13 13 14 14 14 14 14 13 13 13 13 13 13 13 13 13 13 12 12 12 12 12 12 11 11 11 11 11 11
10 11 10 10 12 12 13 14 13 14 13 13 12 12 12 13 13 13 14 14 14 14 13 13 13 13 13 13 13 13 12 12 12 12 12 11 11 11 11 11 11 11 11 11
9 10 10 10 12 12 13 14 14 13 13 13 12 12 12 12 10 11 13 13 13 13 13 13 13 13 13 12 12 12 12 12 12 11 11 11 11 11 11 10 10 10 10 10
10 10 9 10 11 11 12 13 14 13 13 13 13 12 12 11 12 13 13 13 13 13 12 12 12 12 12 12 12 12 11 11 11 11 11 11 10 10 10 10 10 10 9 9
10 10 9 9 10 11 12 12 12 12 13 13 13 13 13 13 13 13 13 13 12 12 12 12 12 12 12 11 11 11 11 11 11 11 10 10 10 10 10 10 9 9 9 9
9 10 9 10 11 12 12 13 14 13 13 13 13 13 13 13 12 12 12 12 12 12 12 11 11 11 11 11 11 10 10 10 10 10 10 10 9 9 9 9 9 9 8 8
9 9 9 9 10 11 12 13 13 13 13 13 13 13 12 12 12 12 12 11 11 11 11 11 11 11 10 10 10 10 10 10 9 9 9 9 9 9 9 8 8 8 8 8
9 8 8 9 9 11 12 13 13 13 13 12 12 12 12 12 12 11 11 11 11 11 11 11 10 10 10 10 10 9 9 9 9 9 9 9 8 8 8 8 8 8 7 7
8 8 9 10 11 10 12 12 12 12 12 12 12 12 11 11 11 11 11 11 10 10 10 10 10 10 10 9 9 9 9 9 9 9 8 8 8 8 7 7 7 7 7 7
Wind_Speed
4 5 1 3 4 3 2 2 1 2 1 2 2 2 3 1 1 2 2 2 3 4 3 1 1 1 2 2 2 2 2 2 2 1 1 1 1 0 1 1 3 4 5 5
5 1 3 2 3 3 2 1 1 2 1 2 1 2 2 1 2 3 3 3 3 2 1 0 1 2 2 2 2 2 2 2 2 2 1 2 2 1 0 1 2 3 3 4
3 3 1 3 2 2 1 4 3 2 2 3 2 4 3 1 1 1 1 2 3 3 3 2 1 1 1 2 2 2 1 1 1 2 2 2 3 2 1 1 1 1 2 3
1 2 1 2 1 4 3 4 4 3 2 1 1 2 4 2 2 2 2 2 2 3 2 2 1 1 2 2 2 2 2 1 1 2 3 3 3 2 2 1 1 1 2 2
2 1 1 1 3 4 3 2 4 3 3 1 1 2 6 2 3 4 3 2 2 2 2 2 2 3 3 2 2 2 2 1 1 2 3 4 3 2 1 1 2 1 1 1
3 2 1 3 0 2 4 5 5 5 4 1 2 3 4 3 4 3 2 2 2 1 1 1 0 0 1 1 1 2 2 1 1 2 2 4 4 4 3 2 2 1 0 0
4 4 2 1 3 3 5 5 3 4 3 3 2 2 5 4 3 3 3 3 2 2 2 1 1 1 0 1 1 2 3 1 1 2 2 3 4 4 4 3 3 3 2 1
0 5 3 0 3 3 2 6 5 3 3 4 2 3 4 3 2 0 1 2 2 2 2 2 1 1 1 1 1 2 2 2 1 2 2 2 2 3 3 3 3 3 3 3
3 5 4 1 1 5 4 3 5 5 2 1 4 4 4 1 2 2 2 2 2 3 2 2 1 1 1 1 1 2 3 2 2 2 2 2 2 3 3 3 2 2 2 2
5 3 4 3 4 4 4 7 5 4 3 2 4 3 4 4 4 2 1 2 3 3 3 2 2 1 1 1 1 1 1 2 2 2 2 1 1 2 3 2 3 3 3 2
3 3 4 3 1 2 3 4 4 4 4 4 2 5 4 5 4 4 4 3 4 4 4 3 3 2 1 0 0 0 0 0 0 1 1 0 0 0 1 2 3 3 2 3
3 4 2 5 4 2 3 4 5 4 2 3 3 6 4 2 2 2 2 2 2 3 3 3 3 2 2 1 1 0 0 1 1 1 1 1 0 0 0 1 2 2 3 3
4 5 2 5 4 3 1 2 3 5 4 4 3 6 3 3 2 1 1 1 1 1 1 2 2 2 2 2 1 1 1 1 1 1 1 1 0 0 1 1 1 1 1 2
5 4 5 6 5 3 2 2 3 5 4 4 6 7 6 5 3 3 1 1 1 2 2 3 3 3 3 2 2 2 2 2 1 1 1 1 1 1 1 0 1 0 1 1
4 2 2 4 3 1 3 4 4 5 6 6 6 5 7 5 4 3 1 0 0 1 1 2 3 4 3 2 2 2 3 2 2 2 1 2 1 0 1 1 1 1 1 1
3 3 1 2 1 1 2 4 3 4 4 4 3 5 5 3 1 0 1 1 1 2 2 2 2 3 4 4 4 3 3 3 2 2 3 2 1 1 1 0 1 2 2 2
2 3 3 3 4 3 4 5 5 3 3 4 6 6 2 1 2 3 3 3 4 3 3 2 2 3 4 4 4 4 4 3 2 3 3 2 2 2 1 1 1 1 1 1
5 4 3 1 1 4 6 2 3 3 3 4 4 3 2 3 3 2 2 4 4 3 3 3 3 3 2 2 3 2 2 2 3 3 2 2 2 2 1 1 1 1 0 0
4 6 4 3 2 6 6 2 2 3 3 3 4 2 1 1 3 3 2 2 4 4 3 3 3 3 2 1 2 2 1 1 2 2 3 3 4 3 2 2 2 2 1 1
4 4 4 3 3 5 5 3 1 3 4 3 3 2 1 3 1 5 3 2 2 1 1 1 1 0 0 1 1 3 2 2 3 4 3 3 3 4 4 4 3 2 1 1
2 3 3 4 4 6 6 3 2 3 5 2 3 3 3 3 5 4 2 2 2 1 1 0 0 0 1 0 1 2 2 3 4 3 2 1 2 3 3 3 2 2 2 1
5 5 4 4 4 7 3 3 5 6 3 2 3 3 4 4 3 2 1 1 1 1 1 0 1 0 1 0 1 1 3 4 2 2 2 1 1 1 1 2 1 2 2 2
5 6 6 7 7 4 3 4 3 2 2 3 3 4 3 2 2 2 2 2 2 1 1 0 1 0 1 0 1 1 3 2 1 2 2 2 2 1 2 2 2 2 2 2
3 2 3 3 6 5 4 3 2 2 3 3 3 3 3 3 3 2 2 2 2 1 1 1 1 1 1 2 1 2 2 0 1 1 1 2 2 2 1 2 2 2 2 2
5 4 3 4 6 5 4 4 3 2 1 1 1 1 3 2 2 3 2 2 2 2 1 1 2 2 3 2 2 2 1 1 1 1 2 2 2 2 2 2 2 3 3 4
5 7 6 7 6 5 5 4 2 2 2 2 1 1 1 2 3 2 3 2 2 2 1 1 2 2 2 2 3 2 1 1 2 1 1 1 2 2 2 2 1 2 3 4
Wind_Direction
31 71 140 215 180 170 147 137 241 264 242 114 156 249 271 245 175 215 227 223 226 235 251 246 146 124 117 131 147 157 163 168 148 133 132 123 128 33 45 89 119 136 145 144
42 354 235 173 140 129 135 145 274 320 36 126 141 308 290 210 220 215 211 220 229 242 280 271 125 109 138 154 153 154 164 165 170 172 155 130 123 107 117 76 90 115 139 146
165 235 186 119 116 118 195 191 206 208 23 50 60 334 318 309 292 281 236 218 220 215 212 213 181 160 154 176 182 174 164 156 161 141 114 91 75 58 45 48 55 73 129 140
227 263 143 126 183 155 231 223 187 154 116 299 92 291 292 286 305 289 276 253 241 238 206 196 191 190 196 212 188 160 161 150 151 145 147 148 157 170 201 180 152 97 112 128
257 254 142 198 234 184 206 111 125 130 139 46 9 179 286 325 293 281 274 261 251 235 194 195 208 211 205 199 176 168 154 154 150 150 162 161 161 175 161 119 108 100 70 113
265 266 197 217 197 127 118 76 60 54 77 355 261 182 279 266 249 279 267 251 235 199 168 161 136 125 169 158 144 141 141 155 158 149 155 164 166 162 152 146 150 157 132 1
334 329 328 110 77 45 76 83 33 5 12 263 284 185 251 266 250 224 228 231 210 184 169 154 115 83 97 146 150 139 141 156 169 153 167 185 178 167 171 175 181 181 193 224
350 298 292 306 163 176 150 135 154 202 233 282 322 235 256 287 310 238 179 174 167 177 191 196 192 191 212 180 175 162 161 173 168 162 186 184 178 177 185 187 191 192 204 216
179 265 297 285 198 138 133 153 160 138 159 280 288 288 303 324 8 47 85 131 188 199 209 219 200 193 216 222 212 190 179 180 189 195 196 191 185 187 192 198 200 206 218 213
159 247 303 317 59 41 123 139 102 125 157 253 293 287 270 270 267 270 229 208 217 200 196 217 208 198 216 220 221 134 156 194 215 207 208 194 196 200 198 194 210 217 222 209
138 169 309 11 125 200 78 93 106 119 146 161 256 275 237 228 229 225 235 233 216 205 204 201 199 192 203 223 147 140 173 165 235 225 222 218 245 210 200 211 231 226 224 209
133 129 251 271 266 207 154 153 142 149 212 173 183 266 291 248 235 208 236 260 244 213 206 197 186 177 175 200 210 214 222 224 236 211 161 204 244 65 230 236 240 226 217 207
135 115 53 343 342 7 84 141 144 131 125 157 182 265 321 16 21 44 201 247 248 204 190 186 178 193 206 212 208 212 225 239 244 175 140 112 19 5 267 272 254 214 214 209
119 119 167 201 228 227 251 210 163 141 160 204 222 253 300 325 326 321 307 245 220 204 197 197 204 216 218 215 213 217 236 240 225 165 150 170 240 239 265 325 33 69 137 151
102 149 216 241 252 217 248 237 187 183 191 199 235 240 264 266 253 251 249 267 21 261 228 222 224 226 225 222 227 227 230 231 205 180 185 218 227 152 69 42 42 42 61 86
72 145 152 304 323 254 278 275 228 212 204 215 248 269 267 264 278 278 208 190 220 256 264 273 259 240 230 224 224 228 229 221 194 198 217 215 177 123 111 123 74 52 47 54
103 128 134 262 306 353 283 247 216 210 207 187 220 246 265 306 267 238 227 219 227 237 253 267 266 250 246 235 224 221 224 209 192 213 228 202 173 174 198 160 97 78 45 59
143 128 135 169 39 247 249 251 190 188 250 215 214 245 242 238 256 260 230 214 228 243 252 262 266 260 258 240 220 223 212 193 201 212 219 205 181 196 195 153 164 187 131 111
156 143 131 136 213 273 291 268 184 190 271 225 204 236 279 348 23 327 290 231 229 232 237 240 242 241 237 239 198 157 167 189 199 221 221 213 197 194 188 194 207 199 160 167
81 108 127 138 184 242 254 268 243 124 278 254 197 221 252 76 6 283 298 291 274 269 259 252 258 340 290 279 174 152 184 194 221 231 229 219 200 192 195 205 207 195 173 199
93 89 146 170 216 259 258 269 115 163 249 257 200 207 197 200 225 259 286 298 279 264 274 266 138 85 276 262 122 154 199 229 239 230 206 199 205 207 199 194 183 172 169 160
177 167 182 162 199 254 243 138 173 221 255 233 218 220 220 236 265 283 276 287 305 307 314 234 139 310 315 108 120 188 241 242 225 187 175 193 208 212 181 158 154 149 155 159
197 191 186 189 213 241 223 208 230 203 218 233 229 247 220 227 255 259 263 264 274 272 246 217 158 230 328 306 169 232 269 264 190 171 181 196 194 194 171 164 167 156 161 170
253 173 166 240 264 260 259 255 263 218 223 245 247 245 208 223 242 251 259 261 268 289 270 195 132 153 286 291 269 252 279 166 149 168 199 200 192 204 192 174 169 171 183 190
223 173 185 245 271 300 284 249 248 259 276 296 300 242 207 202 248 246 245 249 253 268 286 203 193 218 247 264 269 273 271 152 155 185 201 209 208 206 203 200 199 196 206 199
207 191 192 227 227 212 253 269 248 224 245 231 221 284 278 218 232 240 246 251 252 250 260 260 230 231 250 263 271 280 271 203 187 210 229 220 212 207 199 207 272 261 233 240
Height
1504 1509 1513 1512 1511 1513 1515 1519 1521 1518 1514 1516 1519 1519 1517 1516 1516 1516 1516 1516 1517 1517 1519 1520 1521 1523 1523 1524 1525 1526 1527 1527 1528 1528 1528 1529 1530 1530 1531 1532 1532 1533 1534 1535
1510 1512 1508 1507 1509 1511 1515 1520 1521 1518 1514 1516 1520 1520 1516 1516 1515 1515 1515 1515 1515 1517 1518 1519 1520 1521 1522 1523 1524 1525 1526 1526 1527 1527 1528 1528 1529 1529 1530 1531 1532 1532 1533 1534
1511 1510 1505 1507 1510 1513 1515 1519 1519 1519 1517 1517 1520 1523 1518 1515 1515 1515 1514 1515 1515 1516 1517 1518 1519 1520 1521 1522 1523 1523 1524 1525 1526 1526 1527 1527 1528 1528 1529 1530 1531 1531 1532 1533
1508 1506 1506 1508 1510 1511 1518 1511 1513 1516 1523 1528 1524 1535 1522 1517 1515 1514 1514 1514 1514 1515 1516 1517 1518 1519 1520 1520 1521 1522 1523 1524 1524 1525 1526 1526 1527 1527 1528 1529 1530 1531 1532 1533
1509 1506 1507 1509 1508 1508 1511 1509 1512 1517 1522 1529 1528 1533 1527 1519 1518 1514 1513 1513 1513 1514 1515 1515 1516 1517 1518 1519 1520 1521 1522 1523 1523 1524 1524 1524 1525 1526 1527 1528 1529 1530 1531 1532
1506 1504 1504 1505 1504 1505 1508 1513 1518 1524 1528 1536 1530 1533 1531 1522 1517 1513 1512 1512 1512 1513 1514 1514 1515 1516 1517 1518 1519 1520 1521 1521 1522 1522 1523 1523 1524 1525 1525 1526 1527 1528 1529 1530
1511 1506 1504 1503 1507 1508 1511 1523 1536 1537 1543 1540 1529 1531 1528 1515 1512 1511 1510 1510 1511 1512 1513 1513 1514 1515 1516 1517 1518 1519 1519 1520 1520 1521 1521 1522 1522 1523 1524 1524 1526 1527 1527 1528
1520 1520 1507 1504 1507 1511 1513 1520 1537 1543 1545 1540 1530 1531 1522 1512 1510 1509 1509 1509 1510 1511 1512 1513 1514 1515 1515 1516 1517 1518 1518 1519 1520 1520 1520 1521 1521 1522 1522 1523 1524 1525 1525 1526
1521 1519 1506 1504 1504 1507 1514 1520 1521 1533 1536 1540 1535 1527 1517 1510 1509 1509 1509 1509 1509 1510 1512 1513 1513 1514 1515 1516 1516 1517 1517 1518 1519 1519 1519 1519 1520 1520 1521 1521 1522 1523 1524 1524
1512 1518 1509 1506 1504 1507 1510 1517 1527 1533 1540 1544 1536 1530 1526 1514 1511 1509 1509 1509 1509 1510 1511 1512 1513 1514 1515 1515 1516 1516 1517 1517 1518 1518 1518 1518 1519 1519 1519 1520 1520 1521 1521 1522
1509 1518 1515 1510 1511 1513 1515 1519 1525 1532 1534 1542 1542 1534 1513 1510 1508 1508 1508 1508 1508 1509 1510 1511 1512 1513 1514 1515 1515 1515 1516 1516 1517 1517 1518 1518 1518 1518 1518 1518 1518 1519 1519 1519
1510 1519 1522 1515 1508 1507 1510 1514 1522 1530 1534 1537 1540 1532 1507 1507 1506 1506 1507 1507 1508 1508 1509 1510 1511 1512 1513 1514 1514 1514 1515 1515 1516 1516 1516 1516 1516 1516 1516 1516 1516 1516 1517 1517
1510 1518 1527 1523 1520 1513 1512 1513 1516 1523 1531 1538 1538 1528 1507 1505 1505 1505 1506 1506 1506 1507 1508 1509 1510 1511 1511 1512 1513 1514 1514 1514 1514 1515 1514 1514 1514 1514 1514 1514 1514 1514 1514 1514
1507 1517 1523 1525 1521 1515 1514 1513 1515 1520 1529 1532 1529 1520 1510 1507 1506 1505 1505 1505 1505 1506 1507 1507 1508 1509 1510 1511 1511 1512 1512 1513 1513 1513 1513 1512 1512 1512 1511 1511 1511 1511 1511 1512
1507 1515 1515 1514 1511 1511 1512 1511 1512 1516 1518 1523 1518 1516 1510 1507 1506 1505 1504 1504 1504 1505 1506 1506 1506 1507 1508 1509 1509 1510 1510 1510 1510 1510 1510 1510 1510 1509 1509 1509 1509 1509 1509 1509
1509 1514 1514 1514 1511 1511 1512 1510 1510 1511 1512 1513 1513 1512 1505 1504 1504 1503 1503 1503 1503 1503 1504 1504 1505 1505 1506 1506 1507 1507 1507 1508 1508 1507 1507 1507 1507 1507 1507 1507 1507 1507 1507 1507
1512 1514 1518 1521 1515 1511 1516 1508 1507 1508 1507 1508 1511 1508 1503 1503 1502 1502 1501 1502 1502 1502 1502 1502 1502 1503 1503 1504 1504 1504 1505 1505 1505 1505 1505 1505 1505 1505 1505 1505 1504 1504 1504 1504
1512 1516 1522 1523 1519 1522 1511 1502 1502 1504 1504 1504 1503 1502 1502 1501 1501 1500 1500 1500 1500 1500 1500 1500 1500 1500 1501 1502 1502 1502 1502 1502 1502 1502 1502 1502 1502 1502 1502 1502 1502 1502 1502 1502
1507 1513 1521 1526 1524 1518 1508 1501 1502 1503 1504 1501 1501 1501 1500 1500 1499 1499 1499 1498 1498 1498 1498 1498 1498 1498 1498 1499 1499 1499 1499 1499 1499 1499 1499 1499 1499 1499 1499 1499 1499 1499 1499 1499
1509 1511 1520 1525 1522 1520 1507 1500 1498 1502 1505 1499 1499 1499 1499 1499 1503 1500 1497 1497 1497 1497 1496 1496 1496 1496 1496 1496 1496 1496 1495 1496 1496 1496 1496 1496 1496 1495 1495 1495 1495 1495 1495 1495
1513 1516 1520 1523 1521 1514 1502 1498 1499 1509 1506 1497 1496 1496 1497 1497 1498 1497 1495 1495 1494 1494 1494 1494 1494 1494 1494 1494 1493 1492 1492 1492 1492 1493 1493 1493 1493 1493 1492 1492 1492 1492 1492 1492
1511 1515 1519 1521 1521 1514 1498 1498 1501 1500 1496 1495 1495 1495 1494 1494 1494 1493 1493 1492 1492 1492 1492 1491 1491 1491 1491 1491 1491 1490 1489 1489 1489 1489 1489 1489 1489 1489 1489 1489 1489 1489 1489 1489
1506 1505 1507 1508 1506 1498 1495 1495 1495 1494 1494 1493 1493 1493 1492 1492 1491 1491 1490 1490 1490 1490 1489 1489 1489 1489 1489 1489 1488 1487 1487 1486 1486 1486 1486 1486 1486 1486 1486 1486 1486 1486 1485 1485
1501 1500 1502 1502 1497 1494 1493 1493 1492 1492 1492 1491 1491 1491 1490 1489 1489 1489 1488 1488 1487 1487 1487 1486 1486 1486 1486 1486 1485 1485 1484 1484 1483 1483 1483 1483 1483 1483 1483 1483 1483 1483 1483 1482
1497 1498 1499 1498 1494 1492 1490 1490 1490 1490 1489 1489 1489 1489 1488 1487 1487 1487 1486 1486 1485 1485 1484 1484 1484 1483 1483 1483 1482 1482 1481 1481 1480 1480 1480 1479 1480 1480 1480 1480 1480 1480 1480 1480
1492 1493 1494 1493 1489 1490 1488 1488 1488 1487 1487 1486 1486 1486 1486 1485 1485 1484 1484 1484 1483 1483 1482 1481 1481 1480 1480 1480 1479 1479 1478 1478 1477 1476 1476 1476 1476 1476 1476 1476 1476 1476 1477 1477